Time,TemperatureF,DewpointF,PressureIn,WindDirection,WindDirectionDegrees,WindSpeedMPH,WindSpeedGustMPH,Humidity,HourlyPrecipIn,Conditions,Clouds,dailyrainin,SoftwareType,DateUTC
2013-01-13 00:03:00,40.0,39.0,30.09,NW,319,0.0,0.0,95,0.00,,,0.04,,2013-01-13 05:03:00,
2013-01-13 00:12:00,40.0,39.0,30.09,NW,319,0.0,0.0,95,0.00,,,0.04,,2013-01-13 05:12:00,
2013-01-13 00:22:00,40.0,39.0,30.09,NW,319,0.0,0.0,95,0.00,,,0.04,,2013-01-13 05:22:00,
2013-01-13 00:32:00,40.0,39.0,30.09,NW,319,0.0,1.0,95,0.01,,,0.05,,2013-01-13 05:32:00,
2013-01-13 00:42:00,40.0,39.0,30.09,NW,319,0.0,1.0,95,0.01,,,0.05,,2013-01-13 05:42:00,
2013-01-13 00:52:00,40.0,39.0,30.09,WNW,292,0.0,1.0,95,0.01,,,0.05,,2013-01-13 05:52:00,
2013-01-13 01:03:00,40.0,39.0,30.09,WNW,292,0.0,1.0,95,0.01,,,0.05,,2013-01-13 06:03:00,
2013-01-13 01:12:00,41.0,40.0,30.09,WNW,292,0.0,1.0,95,0.01,,,0.05,,2013-01-13 06:12:00,
2013-01-13 01:22:00,41.0,40.0,30.09,WNW,292,0.0,1.0,95,0.01,,,0.05,,2013-01-13 06:22:00,
2013-01-13 01:32:00,41.0,40.0,30.09,WNW,283,0.0,1.0,95,0.00,,,0.05,,2013-01-13 06:32:00,
2013-01-13 01:42:00,41.0,40.0,30.09,WNW,283,0.0,1.0,95,0.00,,,0.05,,2013-01-13 06:42:00,
2013-01-13 01:52:00,41.0,40.0,30.09,WNW,283,0.0,1.0,95,0.00,,,0.05,,2013-01-13 06:52:00,
2013-01-13 02:02:00,41.0,40.0,30.09,West,263,0.0,1.0,95,0.00,,,0.05,,2013-01-13 07:02:00,
2013-01-13 02:12:00,41.0,40.0,30.09,West,263,0.0,1.0,95,0.00,,,0.05,,2013-01-13 07:12:00,
2013-01-13 02:22:00,41.0,40.0,30.09,West,263,0.0,1.0,95,0.00,,,0.05,,2013-01-13 07:22:00,
2013-01-13 02:32:00,41.0,40.0,30.09,West,259,0.0,3.0,95,0.00,,,0.05,,2013-01-13 07:32:00,
2013-01-13 02:42:00,41.0,40.0,30.09,West,259,0.0,3.0,95,0.00,,,0.05,,2013-01-13 07:42:00,
2013-01-13 02:52:00,41.0,40.0,30.09,West,267,1.0,3.0,95,0.00,,,0.05,,2013-01-13 07:52:00,
2013-01-13 03:02:00,41.0,40.0,30.09,WSW,255,0.0,2.0,95,0.00,,,0.05,,2013-01-13 08:02:00,
2013-01-13 03:12:00,41.0,40.0,30.09,WSW,255,0.0,2.0,95,0.00,,,0.05,,2013-01-13 08:12:00,
2013-01-13 03:22:00,41.0,40.0,30.09,West,264,1.0,2.0,95,0.00,,,0.05,,2013-01-13 08:22:00,
2013-01-13 03:32:00,41.0,40.0,30.09,West,264,0.0,1.0,95,0.00,,,0.05,,2013-01-13 08:32:00,
2013-01-13 03:42:00,41.0,40.0,30.09,West,264,0.0,1.0,95,0.00,,,0.05,,2013-01-13 08:42:00,
2013-01-13 03:52:00,41.0,40.0,30.08,West,264,0.0,0.0,95,0.00,,,0.05,,2013-01-13 08:52:00,
2013-01-13 04:02:00,41.0,40.0,30.08,West,264,0.0,2.0,95,0.00,,,0.05,,2013-01-13 09:02:00,
2013-01-13 04:12:00,41.0,40.0,30.08,West,259,0.0,3.0,95,0.00,,,0.05,,2013-01-13 09:12:00,
2013-01-13 04:22:00,41.0,40.0,30.08,West,259,0.0,3.0,95,0.00,,,0.05,,2013-01-13 09:22:00,
2013-01-13 04:32:00,41.0,40.0,30.07,West,274,1.0,3.0,95,0.00,,,0.05,,2013-01-13 09:32:00,
2013-01-13 04:42:00,41.0,40.0,30.07,West,274,1.0,3.0,95,0.00,,,0.05,,2013-01-13 09:42:00,
2013-01-13 04:52:00,41.0,40.0,30.06,South,180,0.0,1.0,95,0.00,,,0.05,,2013-01-13 09:52:00,
2013-01-13 05:03:00,41.0,40.0,30.07,WSW,238,2.0,5.0,95,0.00,,,0.05,,2013-01-13 10:03:00,
2013-01-13 05:12:00,41.0,40.0,30.07,WSW,238,2.0,5.0,95,0.00,,,0.05,,2013-01-13 10:12:00,
2013-01-13 05:22:00,41.0,40.0,30.06,WSW,242,2.0,6.0,96,0.00,,,0.05,,2013-01-13 10:22:00,
2013-01-13 05:32:00,41.0,40.0,30.04,WSW,256,0.0,3.0,96,0.00,,,0.05,,2013-01-13 10:32:00,
2013-01-13 05:42:00,41.0,40.0,30.04,WSW,256,0.0,3.0,96,0.00,,,0.05,,2013-01-13 10:42:00,
2013-01-13 05:52:00,41.0,40.0,30.04,West,265,0.0,2.0,96,0.00,,,0.04,,2013-01-13 10:52:00,
2013-01-13 06:02:00,41.0,40.0,30.05,SW,234,0.0,2.0,96,0.00,,,0.04,,2013-01-13 11:02:00,
2013-01-13 06:12:00,41.0,40.0,30.05,SW,234,0.0,2.0,96,0.00,,,0.04,,2013-01-13 11:12:00,
2013-01-13 06:22:00,41.0,40.0,30.06,SW,219,1.0,3.0,95,0.00,,,0.04,,2013-01-13 11:22:00,
2013-01-13 06:33:00,41.0,40.0,30.06,WSW,251,1.0,3.0,96,0.00,,,0.04,,2013-01-13 11:33:00,
2013-01-13 06:42:00,41.0,40.0,30.06,WSW,251,1.0,3.0,96,0.00,,,0.04,,2013-01-13 11:42:00,
2013-01-13 06:52:00,42.0,41.0,30.07,WSW,257,1.0,3.0,96,0.00,,,0.04,,2013-01-13 11:52:00,
2013-01-13 07:03:00,42.0,41.0,30.08,WSW,258,0.0,1.0,98,0.00,,,0.03,,2013-01-13 12:03:00,
2013-01-13 07:12:00,42.0,41.0,30.08,WSW,258,0.0,1.0,98,0.00,,,0.03,,2013-01-13 12:12:00,
2013-01-13 07:22:00,42.0,41.0,30.08,WSW,245,0.0,2.0,98,0.00,,,0.03,,2013-01-13 12:22:00,
2013-01-13 07:33:00,42.0,41.0,30.08,WSW,255,1.0,3.0,98,0.00,,,0.03,,2013-01-13 12:33:00,
2013-01-13 07:42:00,42.0,41.0,30.08,WSW,255,1.0,3.0,98,0.00,,,0.03,,2013-01-13 12:42:00,
2013-01-13 07:52:00,42.0,41.0,30.09,West,274,0.0,2.0,98,0.00,,,0.03,,2013-01-13 12:52:00,
2013-01-13 08:03:00,42.0,41.0,30.09,West,263,0.0,3.0,98,0.00,,,0.03,,2013-01-13 13:03:00,
2013-01-13 08:12:00,42.0,41.0,30.09,West,263,0.0,3.0,98,0.00,,,0.03,,2013-01-13 13:12:00,
2013-01-13 08:22:00,42.0,41.0,30.10,WSW,255,0.0,2.0,98,0.00,,,0.03,,2013-01-13 13:22:00,
2013-01-13 08:33:00,42.0,41.0,30.11,West,265,2.0,5.0,98,0.00,,,0.03,,2013-01-13 13:33:00,
2013-01-13 08:42:00,42.0,41.0,30.11,West,265,2.0,5.0,98,0.00,,,0.03,,2013-01-13 13:42:00,
2013-01-13 08:53:00,42.0,41.0,30.11,West,265,2.0,5.0,98,0.00,,,0.03,,2013-01-13 13:53:00,
2013-01-13 09:03:00,42.0,41.0,30.10,WSW,252,0.0,6.0,98,0.00,,,0.03,,2013-01-13 14:03:00,
2013-01-13 09:12:00,42.0,41.0,30.10,WSW,252,0.0,6.0,98,0.00,,,0.03,,2013-01-13 14:12:00,
2013-01-13 09:22:00,42.0,41.0,30.10,WSW,252,0.0,6.0,98,0.00,,,0.03,,2013-01-13 14:22:00,
2013-01-13 09:33:00,43.0,42.0,30.09,West,261,2.0,3.0,98,0.00,,,0.03,,2013-01-13 14:33:00,
2013-01-13 09:43:00,43.0,42.0,30.09,West,261,2.0,3.0,98,0.00,,,0.03,,2013-01-13 14:43:00,
2013-01-13 09:53:00,43.0,42.0,30.09,WSW,257,2.0,6.0,98,0.00,,,0.03,,2013-01-13 14:53:00,
2013-01-13 10:03:00,43.0,42.0,30.10,West,271,2.0,3.0,98,0.00,,,0.03,,2013-01-13 15:03:00,
2013-01-13 10:12:00,43.0,42.0,30.10,West,271,2.0,3.0,98,0.00,,,0.03,,2013-01-13 15:12:00,
2013-01-13 10:23:00,43.0,42.0,30.10,WSW,256,2.0,5.0,98,0.00,,,0.03,,2013-01-13 15:23:00,
2013-01-13 10:33:00,44.0,43.0,30.11,WSW,250,1.0,7.0,98,0.00,,,0.03,,2013-01-13 15:33:00,
2013-01-13 10:43:00,44.0,43.0,30.11,WSW,250,1.0,7.0,98,0.00,,,0.03,,2013-01-13 15:43:00,
2013-01-13 10:52:00,44.0,43.0,30.11,West,260,2.0,5.0,98,0.00,,,0.03,,2013-01-13 15:52:00,
2013-01-13 11:03:00,44.0,43.0,30.09,WSW,255,1.0,5.0,98,0.00,,,0.03,,2013-01-13 16:03:00,
2013-01-13 11:12:00,44.0,43.0,30.09,WSW,255,1.0,5.0,98,0.00,,,0.03,,2013-01-13 16:12:00,
2013-01-13 11:23:00,45.0,44.0,30.09,WSW,258,0.0,6.0,98,0.00,,,0.03,,2013-01-13 16:23:00,
2013-01-13 11:33:00,45.0,44.0,30.07,WSW,256,1.0,3.0,98,0.00,,,0.03,,2013-01-13 16:33:00,
2013-01-13 11:43:00,45.0,44.0,30.07,WSW,256,1.0,3.0,98,0.00,,,0.03,,2013-01-13 16:43:00,
2013-01-13 11:53:00,46.0,45.0,30.07,WSW,242,1.0,6.0,98,0.00,,,0.03,,2013-01-13 16:53:00,
2013-01-13 12:03:00,46.0,45.0,30.06,SW,235,2.0,7.0,98,0.00,,,0.03,,2013-01-13 17:03:00,
2013-01-13 12:12:00,46.0,45.0,30.06,SW,235,2.0,7.0,98,0.00,,,0.03,,2013-01-13 17:12:00,
2013-01-13 12:22:00,46.0,45.0,30.06,SW,222,1.0,6.0,98,0.00,,,0.03,,2013-01-13 17:22:00,
2013-01-13 12:33:00,47.0,46.0,30.06,WSW,251,2.0,6.0,98,0.00,,,0.03,,2013-01-13 17:33:00,
2013-01-13 12:42:00,47.0,46.0,30.06,WSW,251,2.0,6.0,98,0.00,,,0.03,,2013-01-13 17:42:00,
2013-01-13 12:53:00,47.0,46.0,30.05,SW,235,1.0,10.0,98,0.00,,,0.03,,2013-01-13 17:53:00,
2013-01-13 13:03:00,47.0,46.0,30.05,West,260,3.0,9.0,98,0.00,,,0.03,,2013-01-13 18:03:00,
2013-01-13 13:12:00,47.0,46.0,30.05,West,260,3.0,9.0,98,0.00,,,0.03,,2013-01-13 18:12:00,
2013-01-13 13:23:00,47.0,46.0,30.04,WSW,253,3.0,7.0,98,0.00,,,0.03,,2013-01-13 18:23:00,
2013-01-13 13:33:00,47.0,46.0,30.04,SW,230,1.0,10.0,98,0.00,,,0.03,,2013-01-13 18:33:00,
2013-01-13 13:43:00,47.0,46.0,30.04,SW,230,1.0,10.0,98,0.00,,,0.03,,2013-01-13 18:43:00,
2013-01-13 13:53:00,47.0,46.0,30.03,SW,234,2.0,5.0,98,0.00,,,0.03,,2013-01-13 18:53:00,
2013-01-13 14:03:00,47.0,46.0,30.04,SW,220,3.0,8.0,98,0.00,,,0.03,,2013-01-13 19:03:00,
2013-01-13 14:12:00,47.0,46.0,30.04,SW,220,3.0,8.0,98,0.00,,,0.03,,2013-01-13 19:12:00,
2013-01-13 14:22:00,47.0,46.0,30.03,SW,235,2.0,7.0,98,0.00,,,0.03,,2013-01-13 19:22:00,
2013-01-13 14:33:00,48.0,47.0,30.03,WNW,283,2.0,8.0,98,0.00,,,0.03,,2013-01-13 19:33:00,
2013-01-13 14:43:00,48.0,47.0,30.03,WNW,283,2.0,8.0,98,0.00,,,0.03,,2013-01-13 19:43:00,
2013-01-13 14:52:00,48.0,47.0,30.02,West,264,2.0,3.0,98,0.00,,,0.03,,2013-01-13 19:52:00,
2013-01-13 15:03:00,49.0,48.0,30.02,SW,217,2.0,5.0,98,0.00,,,0.03,,2013-01-13 20:03:00,
2013-01-13 15:12:00,49.0,48.0,30.02,SW,217,2.0,5.0,98,0.00,,,0.03,,2013-01-13 20:12:00,
2013-01-13 15:22:00,49.0,48.0,30.01,SSW,202,1.0,7.0,98,0.00,,,0.03,,2013-01-13 20:22:00,
2013-01-13 15:33:00,49.0,48.0,30.01,WSW,249,1.0,6.0,98,0.00,,,0.03,,2013-01-13 20:33:00,
2013-01-13 15:43:00,49.0,48.0,30.01,WSW,249,1.0,6.0,98,0.00,,,0.03,,2013-01-13 20:43:00,
2013-01-13 15:53:00,49.0,48.0,30.01,WSW,252,3.0,10.0,98,0.00,,,0.03,,2013-01-13 20:53:00,
2013-01-13 16:03:00,49.0,48.0,30.00,WSW,243,2.0,7.0,98,0.00,,,0.03,,2013-01-13 21:03:00,
2013-01-13 16:12:00,49.0,48.0,30.00,WSW,243,2.0,7.0,98,0.00,,,0.03,,2013-01-13 21:12:00,
2013-01-13 16:23:00,49.0,48.0,30.00,SW,225,3.0,6.0,98,0.00,,,0.03,,2013-01-13 21:23:00,
2013-01-13 16:33:00,49.0,48.0,30.00,West,267,3.0,9.0,98,0.00,,,0.02,,2013-01-13 21:33:00,
2013-01-13 16:43:00,49.0,48.0,30.00,West,267,3.0,9.0,98,0.00,,,0.02,,2013-01-13 21:43:00,
2013-01-13 16:52:00,49.0,48.0,29.99,WSW,250,2.0,8.0,98,0.00,,,0.02,,2013-01-13 21:52:00,
2013-01-13 17:03:00,49.0,48.0,29.99,WSW,251,3.0,8.0,98,0.00,,,0.02,,2013-01-13 22:03:00,
2013-01-13 17:12:00,49.0,48.0,29.99,WSW,251,3.0,8.0,98,0.00,,,0.02,,2013-01-13 22:12:00,
2013-01-13 17:22:00,49.0,48.0,29.99,SSW,203,2.0,6.0,98,0.00,,,0.02,,2013-01-13 22:22:00,
2013-01-13 17:33:00,49.0,48.0,29.99,WSW,241,3.0,9.0,98,0.00,,,0.02,,2013-01-13 22:33:00,
2013-01-13 17:43:00,49.0,48.0,29.99,WSW,241,3.0,9.0,98,0.00,,,0.02,,2013-01-13 22:43:00,
2013-01-13 17:52:00,49.0,48.0,29.99,SSW,208,3.0,10.0,98,0.00,,,0.02,,2013-01-13 22:52:00,
2013-01-13 18:02:00,48.0,47.0,29.98,SW,236,3.0,9.0,97,0.00,,,0.02,,2013-01-13 23:02:00,
2013-01-13 18:12:00,48.0,47.0,29.98,SW,236,3.0,9.0,97,0.00,,,0.02,,2013-01-13 23:12:00,
2013-01-13 18:23:00,48.0,47.0,29.98,West,261,2.0,8.0,97,0.00,,,0.02,,2013-01-13 23:23:00,
2013-01-13 18:33:00,48.0,47.0,29.97,WSW,248,2.0,8.0,98,0.00,,,0.02,,2013-01-13 23:33:00,
2013-01-13 18:43:00,48.0,47.0,29.97,WSW,248,2.0,8.0,98,0.00,,,0.02,,2013-01-13 23:43:00,
2013-01-13 18:52:00,48.0,47.0,29.96,WSW,251,2.0,10.0,97,0.00,,,0.02,,2013-01-13 23:52:00,
2013-01-13 19:03:00,48.0,47.0,29.96,SW,234,2.0,10.0,98,0.00,,,0.02,,2013-01-14 00:03:00,
2013-01-13 19:12:00,48.0,47.0,29.96,SW,234,2.0,10.0,98,0.00,,,0.02,,2013-01-14 00:12:00,
2013-01-13 19:22:00,48.0,47.0,29.96,WSW,255,5.0,10.0,98,0.00,,,0.02,,2013-01-14 00:22:00,
2013-01-13 19:33:00,48.0,47.0,29.96,WNW,282,3.0,14.0,98,0.00,,,0.01,,2013-01-14 00:33:00,
2013-01-13 19:43:00,48.0,47.0,29.96,WNW,282,3.0,14.0,98,0.00,,,0.01,,2013-01-14 00:43:00,
2013-01-13 19:52:00,48.0,47.0,29.97,West,276,5.0,12.0,98,0.00,,,0.01,,2013-01-14 00:52:00,
2013-01-13 20:03:00,48.0,47.0,29.97,WSW,254,3.0,9.0,98,0.00,,,0.01,,2013-01-14 01:03:00,
2013-01-13 20:12:00,48.0,47.0,29.97,WSW,254,3.0,9.0,98,0.00,,,0.01,,2013-01-14 01:12:00,
2013-01-13 20:22:00,48.0,47.0,29.97,WSW,249,2.0,10.0,98,0.00,,,0.01,,2013-01-14 01:22:00,
2013-01-13 20:33:00,48.0,47.0,29.98,West,265,2.0,12.0,98,0.00,,,0.01,,2013-01-14 01:33:00,
2013-01-13 20:42:00,48.0,47.0,29.98,West,265,2.0,12.0,98,0.00,,,0.01,,2013-01-14 01:42:00,
2013-01-13 20:52:00,49.0,48.0,29.98,West,266,3.0,12.0,98,0.00,,,0.01,,2013-01-14 01:52:00,
2013-01-13 21:03:00,49.0,48.0,29.98,WSW,248,2.0,7.0,98,0.00,,,0.01,,2013-01-14 02:03:00,
2013-01-13 21:12:00,49.0,48.0,29.98,West,260,2.0,7.0,98,0.00,,,0.01,,2013-01-14 02:12:00,
2013-01-13 21:22:00,49.0,48.0,29.98,West,260,2.0,7.0,98,0.00,,,0.01,,2013-01-14 02:22:00,
2013-01-13 21:33:00,49.0,48.0,29.96,West,261,1.0,9.0,97,0.00,,,0.01,,2013-01-14 02:33:00,
2013-01-13 21:42:00,49.0,48.0,29.96,West,261,1.0,9.0,97,0.00,,,0.01,,2013-01-14 02:42:00,
2013-01-13 21:53:00,49.0,48.0,29.96,WSW,242,2.0,8.0,97,0.00,,,0.01,,2013-01-14 02:53:00,
2013-01-13 22:03:00,49.0,48.0,29.96,West,263,3.0,8.0,97,0.00,,,0.01,,2013-01-14 03:03:00,
2013-01-13 22:12:00,49.0,48.0,29.96,West,263,3.0,8.0,97,0.00,,,0.01,,2013-01-14 03:12:00,
2013-01-13 22:22:00,49.0,48.0,29.96,WSW,241,2.0,12.0,98,0.00,,,0.01,,2013-01-14 03:22:00,
2013-01-13 22:33:00,49.0,48.0,29.96,West,264,3.0,9.0,97,0.00,,,0.01,,2013-01-14 03:33:00,
2013-01-13 22:42:00,49.0,48.0,29.96,West,264,3.0,9.0,97,0.00,,,0.01,,2013-01-14 03:42:00,
2013-01-13 22:52:00,49.0,48.0,29.96,WSW,253,6.0,13.0,97,0.00,,,0.01,,2013-01-14 03:52:00,
2013-01-13 23:03:00,50.0,49.0,29.96,WSW,250,4.0,12.0,97,0.00,,,0.01,,2013-01-14 04:03:00,
2013-01-13 23:12:00,50.0,49.0,29.96,WSW,250,4.0,12.0,97,0.00,,,0.01,,2013-01-14 04:12:00,
2013-01-13 23:22:00,50.0,49.0,29.97,WSW,245,3.0,16.0,97,0.00,,,0.01,,2013-01-14 04:22:00,
2013-01-13 23:32:00,50.0,49.0,29.96,SW,228,5.0,9.0,97,0.00,,,0.01,,2013-01-14 04:32:00,
2013-01-13 23:42:00,50.0,49.0,29.96,SW,228,5.0,9.0,97,0.00,,,0.01,,2013-01-14 04:42:00,
2013-01-13 23:52:00,50.0,49.0,29.96,SW,228,4.0,10.0,97,0.00,,,0.01,,2013-01-14 04:52:00,